Clayton Lake, ME

1:41 PM EDT on May 26, 2017 (GMT -0400)
Clayton Lake

Weather History for K40B - January, 2013

Change the Weather History Date:

Thursday, January 24, 2013

  Actual Average Record
Temperature  
Mean Temperature -8 °F -  
Max Temperature -2 °F 17 °F 48 °F (1999)
Min Temperature -13 °F -6 °F -20 °F (2005)
Degree Days  
Heating Degree Days 73    
Moisture  
Dew Point -18 °F    
Average Humidity 64    
Maximum Humidity 70    
Minimum Humidity 53    
Precipitation  
Precipitation 0.01 in - - ()
Sea Level Pressure  
Sea Level Pressure 29.95 in    
Wind  
Wind Speed 7 mph (WSW)    
Max Wind Speed 10 mph    
Max Gust Speed 30 mph    
Averages and records for this station are not official NWS values.
T = Trace of Precipitation, MM = Missing Value Source: NWS Daily Summary

Daily Weather History Graph

Daily Weather History Graph

Search for Another Location

Airport or City:

Trip Planner

Search our weather history database for the weather conditions in past years. The results will help you decide how hot, cold, wet, or windy it might be!

Date:

Astronomy

Jan. 24, 2013 Rise Set
Actual Time 7:10 AM EST 4:30 PM EST
Civil Twilight 6:37 AM EST 5:03 PM EST
Nautical Twilight 6:00 AM EST 5:40 PM EST
Astronomical Twilight 5:25 AM EST 6:16 PM EST
Moon 2:27 PM EST (1/24) 5:08 AM EST (1/24)
Length of Visible Light 10h 25m
Length of Day
9h 19m
Waxing Gibbous, 94% of the Moon is Illuminated
Jan 24
Waxing Gibbous
Jan 26
Full
Feb 3
Last Quarter
Feb 10
New
Feb 17
First Quarter

Hourly Weather History & Observations

Time (EST) Temp. Windchill Dew Point Humidity Pressure Visibility Wind Dir Wind Speed Gust Speed Precip Events Conditions
12:25 AM -13.0 °F -30.0 °F -20.9 °F 68% 29.94 in - WSW 8.1 mph 17.3 mph N/A   Unknown
1:25 AM -12.8 °F -29.8 °F -20.4 °F 69% 29.94 in - SW 8.1 mph 15.0 mph N/A   Unknown
2:25 AM -12.3 °F -24.2 °F -20.0 °F 68% 29.93 in - Variable 4.6 mph 18.4 mph N/A   Unknown
3:25 AM -12.1 °F -24.0 °F -20.4 °F 67% 29.92 in - Variable 4.6 mph 15.0 mph N/A   Unknown
4:25 AM -11.9 °F -23.8 °F -20.4 °F 66% 29.92 in - Variable 4.6 mph 19.6 mph N/A   Unknown
5:25 AM -11.7 °F -29.7 °F -20.6 °F 65% 29.90 in - WSW 9.2 mph 20.7 mph N/A   Unknown
6:25 AM -12.3 °F -27.7 °F -21.1 °F 65% 29.91 in - Variable 6.9 mph 18.4 mph N/A   Unknown
7:26 AM -12.3 °F -27.7 °F -20.9 °F 65% 29.93 in - Variable 6.9 mph 15.0 mph N/A   Unknown
8:26 AM -11.0 °F -26.2 °F -20.6 °F 63% 29.94 in - WSW 6.9 mph 21.9 mph N/A   Unknown
9:25 AM -8.5 °F -25.7 °F -19.5 °F 59% 29.93 in - WSW 9.2 mph 23.0 mph N/A   Unknown
10:25 AM -9.0 °F -25.2 °F -19.5 °F 60% 29.93 in - WSW 8.1 mph 18.4 mph N/A   Unknown
11:25 AM -8.0 °F -25.0 °F -18.6 °F 60% 29.91 in - WSW 9.2 mph 20.7 mph N/A   Unknown
12:30 PM -4.4 °F -19.5 °F -16.8 °F 55% 29.89 in - WSW 8.1 mph 19.6 mph N/A   Unknown
1:25 PM -3.3 °F -20.3 °F -16.8 °F 53% 29.88 in - WSW 10.4 mph 29.9 mph N/A   Unknown
2:25 PM -3.3 °F -20.3 °F -16.2 °F 54% 29.90 in - SW 10.4 mph 21.9 mph N/A   Unknown
3:25 PM -4.2 °F -18.0 °F -15.2 °F 59% 29.91 in - Variable 6.9 mph 23.0 mph N/A   Unknown
4:25 PM -6.2 °F -21.7 °F -15.5 °F 64% 29.94 in - WSW 8.1 mph 27.6 mph 0.00 in   Unknown
5:25 PM -7.1 °F -19.9 °F -15.5 °F 67% 29.96 in - Variable 5.8 mph 21.9 mph N/A   Unknown
6:25 PM -7.4 °F -23.2 °F -15.9 °F 67% 29.98 in - WSW 8.1 mph 17.3 mph N/A   Unknown
7:25 PM -7.8 °F -16.7 °F -15.9 °F 68% 30.01 in - Variable 3.5 mph 12.7 mph 0.00 in   Unknown
8:25 PM -7.6 °F -22.1 °F -15.9 °F 67% 30.02 in - Variable 6.9 mph 17.3 mph N/A   Unknown
9:28 PM -8.3 °F -19.6 °F -16.1 °F 69% 30.03 in - Variable 4.6 mph 11.5 mph N/A   Unknown
10:25 PM -8.7 °F -23.4 °F -16.1 °F 70% 30.06 in - WSW 6.9 mph 13.8 mph N/A   Unknown
11:25 PM -8.3 °F -21.4 °F -15.9 °F 70% 30.07 in - Variable 5.8 mph 16.1 mph N/A   Unknown